Time,TemperatureF,DewpointF,PressureIn,WindDirection,WindDirectionDegrees,WindSpeedMPH,WindSpeedGustMPH,Humidity,HourlyPrecipIn,Conditions,Clouds,dailyrainin,SoftwareType,DateUTC
2013-01-14 00:00:00,64.2,40.6,31.02,South,190,3.0,8.0,42,0.00,,,0.00,meteohub,2013-01-14 05:00:00,
2013-01-14 00:02:00,64.2,41.2,31.02,WSW,245,4.0,6.0,43,0.00,,,0.00,meteohub,2013-01-14 05:02:00,
2013-01-14 00:07:00,64.2,41.2,31.02,SSW,205,0.0,6.0,43,0.00,,,0.00,meteohub,2013-01-14 05:07:00,
2013-01-14 00:12:00,64.2,41.2,31.02,SSW,193,0.0,7.0,43,0.00,,,0.00,meteohub,2013-01-14 05:12:00,
2013-01-14 00:17:00,64.2,41.2,31.02,West,265,3.0,7.0,43,0.00,,,0.00,meteohub,2013-01-14 05:17:00,
2013-01-14 00:22:00,64.2,41.2,31.02,WSW,242,2.0,7.0,43,0.00,,,0.00,meteohub,2013-01-14 05:22:00,
2013-01-14 00:27:00,64.2,41.9,31.02,SW,223,0.0,6.0,44,0.00,,,0.00,meteohub,2013-01-14 05:27:00,
2013-01-14 00:32:00,64.2,41.9,31.02,WNW,283,0.0,5.0,44,0.00,,,0.00,meteohub,2013-01-14 05:32:00,
2013-01-14 00:37:00,64.2,41.9,31.02,SW,234,2.0,5.0,44,0.00,,,0.00,meteohub,2013-01-14 05:37:00,
2013-01-14 00:42:00,64.2,41.9,31.02,South,175,6.0,6.0,44,0.00,,,0.00,meteohub,2013-01-14 05:42:00,
2013-01-14 00:47:00,64.2,41.9,31.02,WSW,239,6.0,6.0,44,0.00,,,0.00,meteohub,2013-01-14 05:47:00,
2013-01-14 00:52:00,64.4,41.4,31.02,South,187,4.0,6.0,43,0.00,,,0.00,meteohub,2013-01-14 05:52:00,
2013-01-14 00:57:00,64.4,41.4,31.02,South,189,4.0,6.0,43,0.00,,,0.00,meteohub,2013-01-14 05:57:00,
2013-01-14 01:02:00,64.2,41.9,31.02,SSW,199,2.0,6.0,44,0.00,,,0.00,meteohub,2013-01-14 06:02:00,
2013-01-14 01:07:00,64.2,41.9,31.02,NNW,338,0.0,6.0,44,0.00,,,0.00,meteohub,2013-01-14 06:07:00,
2013-01-14 01:12:00,63.9,41.5,31.02,SW,217,0.0,6.0,44,0.00,,,0.00,meteohub,2013-01-14 06:12:00,
2013-01-14 01:18:00,63.9,41.5,31.02,SSE,162,3.0,6.0,44,0.00,,,0.00,meteohub,2013-01-14 06:18:00,
2013-01-14 01:23:00,63.7,41.4,31.02,WSW,239,0.0,6.0,44,0.00,,,0.00,meteohub,2013-01-14 06:23:00,
2013-01-14 01:28:00,63.5,41.7,31.02,WSW,241,4.0,6.0,45,0.00,,,0.00,meteohub,2013-01-14 06:28:00,
2013-01-14 01:33:00,63.5,41.7,31.02,WSW,237,3.0,5.0,45,0.00,,,0.00,meteohub,2013-01-14 06:33:00,
2013-01-14 01:38:00,63.3,41.5,31.02,SW,219,3.0,5.0,45,0.00,,,0.00,meteohub,2013-01-14 06:38:00,
2013-01-14 01:43:00,63.3,41.0,31.02,WSW,250,0.0,5.0,44,0.00,,,0.00,meteohub,2013-01-14 06:43:00,
2013-01-14 01:48:00,63.1,40.8,31.02,SSW,200,3.0,5.0,44,0.00,,,0.00,meteohub,2013-01-14 06:48:00,
2013-01-14 01:53:00,63.1,40.8,31.02,South,186,4.0,6.0,44,0.00,,,0.00,meteohub,2013-01-14 06:53:00,
2013-01-14 01:58:00,63.1,40.8,31.02,SW,222,4.0,6.0,44,0.00,,,0.00,meteohub,2013-01-14 06:58:00,
2013-01-14 02:03:00,63.1,40.8,31.02,West,264,3.0,6.0,44,0.00,,,0.00,meteohub,2013-01-14 07:03:00,
2013-01-14 02:08:00,63.1,40.8,31.02,SW,226,3.0,6.0,44,0.00,,,0.00,meteohub,2013-01-14 07:08:00,
2013-01-14 02:14:00,63.1,40.3,31.02,SW,217,0.0,6.0,43,0.00,,,0.00,meteohub,2013-01-14 07:14:00,
2013-01-14 02:19:00,63.1,40.3,31.02,SW,223,2.0,6.0,43,0.00,,,0.00,meteohub,2013-01-14 07:19:00,
2013-01-14 02:24:00,63.3,39.9,31.02,SSW,211,0.0,6.0,42,0.00,,,0.00,meteohub,2013-01-14 07:24:00,
2013-01-14 02:29:00,63.1,39.7,31.02,SSE,158,4.0,6.0,42,0.00,,,0.00,meteohub,2013-01-14 07:29:00,
2013-01-14 02:34:00,63.3,39.9,31.02,SW,229,3.0,6.0,42,0.00,,,0.00,meteohub,2013-01-14 07:34:00,
2013-01-14 02:39:00,63.3,39.2,31.02,SSW,192,3.0,6.0,41,0.00,,,0.00,meteohub,2013-01-14 07:39:00,
2013-01-14 02:44:00,63.3,39.2,31.02,South,184,3.0,6.0,41,0.00,,,0.00,meteohub,2013-01-14 07:44:00,
2013-01-14 02:49:00,63.1,38.5,31.02,West,264,0.0,6.0,40,0.00,,,0.00,meteohub,2013-01-14 07:49:00,
2013-01-14 02:54:00,63.1,38.5,31.02,WSW,241,2.0,6.0,40,0.00,,,0.00,meteohub,2013-01-14 07:54:00,
2013-01-14 03:00:00,63.1,38.5,31.02,SW,217,0.0,8.0,40,0.00,,,0.00,meteohub,2013-01-14 08:00:00,
2013-01-14 03:05:00,63.1,38.5,31.02,SW,236,6.0,8.0,40,0.00,,,0.00,meteohub,2013-01-14 08:05:00,
2013-01-14 03:10:00,63.0,38.3,31.02,WSW,246,4.0,8.0,40,0.00,,,0.00,meteohub,2013-01-14 08:10:00,
2013-01-14 03:15:00,63.0,38.8,31.02,SW,220,0.0,6.0,41,0.00,,,0.00,meteohub,2013-01-14 08:15:00,
2013-01-14 03:20:00,63.0,38.8,31.02,South,189,0.0,6.0,41,0.00,,,0.00,meteohub,2013-01-14 08:20:00,
2013-01-14 03:25:00,62.8,38.7,31.02,SSW,209,3.0,5.0,41,0.00,,,0.00,meteohub,2013-01-14 08:25:00,
2013-01-14 03:30:00,62.6,38.5,31.02,West,260,2.0,4.0,41,0.00,,,0.00,meteohub,2013-01-14 08:30:00,
2013-01-14 03:36:00,62.4,39.0,31.02,SSW,211,0.0,5.0,42,0.00,,,0.00,meteohub,2013-01-14 08:36:00,
2013-01-14 03:41:00,62.2,38.8,31.02,SSW,202,3.0,5.0,42,0.00,,,0.00,meteohub,2013-01-14 08:41:00,
2013-01-14 03:46:00,62.2,39.4,31.02,South,186,2.0,5.0,43,0.00,,,0.00,meteohub,2013-01-14 08:46:00,
2013-01-14 03:51:00,62.1,39.4,31.02,West,268,3.0,5.0,43,0.00,,,0.00,meteohub,2013-01-14 08:51:00,
2013-01-14 03:56:00,62.1,39.4,31.02,WSW,250,0.0,4.0,43,0.00,,,0.00,meteohub,2013-01-14 08:56:00,
2013-01-14 04:01:00,61.9,39.2,31.02,SSW,194,3.0,4.0,43,0.00,,,0.00,meteohub,2013-01-14 09:01:00,
2013-01-14 04:06:00,61.7,39.6,31.02,SW,233,0.0,4.0,44,0.00,,,0.00,meteohub,2013-01-14 09:06:00,
2013-01-14 04:11:00,61.5,39.4,31.02,SSE,166,0.0,4.0,44,0.00,,,0.00,meteohub,2013-01-14 09:11:00,
2013-01-14 04:16:00,61.5,39.4,31.02,SSW,198,0.0,4.0,44,0.00,,,0.00,meteohub,2013-01-14 09:16:00,
2013-01-14 04:21:00,61.3,39.2,31.02,SSW,206,3.0,4.0,44,0.00,,,0.00,meteohub,2013-01-14 09:21:00,
2013-01-14 04:26:00,61.3,39.7,31.02,WSW,257,2.0,4.0,45,0.00,,,0.00,meteohub,2013-01-14 09:26:00,
2013-01-14 04:31:00,61.3,39.7,31.02,SW,223,3.0,5.0,45,0.00,,,0.00,meteohub,2013-01-14 09:31:00,
2013-01-14 04:37:00,61.3,39.7,31.02,SW,227,3.0,5.0,45,0.00,,,0.00,meteohub,2013-01-14 09:37:00,
2013-01-14 04:42:00,61.3,39.7,31.02,SSW,213,4.0,5.0,45,0.00,,,0.00,meteohub,2013-01-14 09:42:00,
2013-01-14 04:47:00,61.3,39.7,31.02,SW,219,0.0,5.0,45,0.00,,,0.00,meteohub,2013-01-14 09:47:00,
2013-01-14 04:52:00,61.5,39.9,31.02,SSW,203,0.0,5.0,45,0.00,,,0.00,meteohub,2013-01-14 09:52:00,
2013-01-14 04:57:00,61.5,39.9,31.02,SSW,194,2.0,5.0,45,0.00,,,0.00,meteohub,2013-01-14 09:57:00,
2013-01-14 05:02:00,61.7,40.1,31.02,SW,216,3.0,5.0,45,0.00,,,0.00,meteohub,2013-01-14 10:02:00,
2013-01-14 05:07:00,61.7,39.6,31.02,West,278,3.0,5.0,44,0.00,,,0.00,meteohub,2013-01-14 10:07:00,
2013-01-14 05:12:00,61.9,39.7,31.02,SW,223,3.0,5.0,44,0.00,,,0.00,meteohub,2013-01-14 10:12:00,
2013-01-14 05:17:00,61.9,39.7,31.02,WSW,248,0.0,5.0,44,0.00,,,0.00,meteohub,2013-01-14 10:17:00,
2013-01-14 05:22:00,62.1,39.9,31.02,WSW,242,4.0,5.0,44,0.00,,,0.00,meteohub,2013-01-14 10:22:00,
2013-01-14 05:27:00,62.1,39.9,31.02,SSW,205,3.0,6.0,44,0.00,,,0.00,meteohub,2013-01-14 10:27:00,
2013-01-14 05:32:00,62.2,39.4,31.02,SW,225,2.0,6.0,43,0.00,,,0.00,meteohub,2013-01-14 10:32:00,
2013-01-14 05:37:00,62.2,39.4,31.02,SSW,213,4.0,6.0,43,0.00,,,0.00,meteohub,2013-01-14 10:37:00,
2013-01-14 05:42:00,62.2,39.4,31.02,SW,228,3.0,6.0,43,0.00,,,0.00,meteohub,2013-01-14 10:42:00,
2013-01-14 05:47:00,62.2,39.4,31.02,SW,214,2.0,6.0,43,0.00,,,0.00,meteohub,2013-01-14 10:47:00,
2013-01-14 05:52:00,62.2,39.4,31.02,South,185,0.0,6.0,43,0.00,,,0.00,meteohub,2013-01-14 10:52:00,
2013-01-14 05:58:00,62.2,39.4,31.02,SSW,195,3.0,6.0,43,0.00,,,0.00,meteohub,2013-01-14 10:58:00,
2013-01-14 06:03:00,62.2,39.4,31.02,South,190,3.0,6.0,43,0.00,,,0.00,meteohub,2013-01-14 11:03:00,
2013-01-14 06:08:00,62.1,39.4,31.02,SSW,208,0.0,6.0,43,0.00,,,0.00,meteohub,2013-01-14 11:08:00,
2013-01-14 06:13:00,62.1,39.4,31.02,SW,216,0.0,6.0,43,0.00,,,0.00,meteohub,2013-01-14 11:13:00,
2013-01-14 06:18:00,61.9,39.2,31.02,SSW,203,3.0,5.0,43,0.00,,,0.00,meteohub,2013-01-14 11:18:00,
2013-01-14 06:23:00,61.9,39.7,31.02,SW,214,3.0,5.0,44,0.00,,,0.00,meteohub,2013-01-14 11:23:00,
2013-01-14 06:28:00,61.9,39.7,31.02,SW,223,5.0,7.0,44,0.00,,,0.00,meteohub,2013-01-14 11:28:00,
2013-01-14 06:33:00,61.9,39.2,31.02,SSW,198,4.0,7.0,43,0.00,,,0.00,meteohub,2013-01-14 11:33:00,
2013-01-14 06:38:00,62.1,39.4,31.02,SSW,198,3.0,7.0,43,0.00,,,0.00,meteohub,2013-01-14 11:38:00,
2013-01-14 06:44:00,62.1,39.4,31.02,SW,220,3.0,7.0,43,0.00,,,0.00,meteohub,2013-01-14 11:44:00,
2013-01-14 06:48:00,62.1,39.4,31.02,SSW,212,3.0,6.0,43,0.00,,,0.00,meteohub,2013-01-14 11:48:00,
2013-01-14 06:53:00,61.9,39.2,31.02,WSW,240,3.0,6.0,43,0.00,,,0.00,meteohub,2013-01-14 11:53:00,
2013-01-14 06:58:00,62.1,39.4,31.02,WSW,245,2.0,6.0,43,0.00,,,0.00,meteohub,2013-01-14 11:58:00,
2013-01-14 07:04:00,62.1,39.4,31.02,SW,226,3.0,6.0,43,0.00,,,0.00,meteohub,2013-01-14 12:04:00,
2013-01-14 07:09:00,62.1,39.4,31.02,SW,232,3.0,6.0,43,0.00,,,0.00,meteohub,2013-01-14 12:09:00,
2013-01-14 07:14:00,62.1,39.4,31.02,SSW,201,3.0,6.0,43,0.00,,,0.00,meteohub,2013-01-14 12:14:00,
2013-01-14 07:19:00,62.1,39.4,31.02,WSW,245,2.0,6.0,43,0.00,,,0.00,meteohub,2013-01-14 12:19:00,
2013-01-14 07:24:00,62.1,39.4,31.02,SW,229,0.0,5.0,43,0.00,,,0.00,meteohub,2013-01-14 12:24:00,
2013-01-14 07:29:00,62.1,38.7,31.02,South,190,0.0,5.0,42,0.00,,,0.00,meteohub,2013-01-14 12:29:00,
2013-01-14 07:34:00,62.1,39.4,31.02,SSW,213,3.0,4.0,43,0.00,,,0.00,meteohub,2013-01-14 12:34:00,
2013-01-14 07:39:00,62.1,39.4,31.02,South,176,3.0,4.0,43,0.00,,,0.00,meteohub,2013-01-14 12:39:00,
2013-01-14 07:45:00,62.1,38.7,31.02,SW,223,4.0,6.0,42,0.00,,,0.00,meteohub,2013-01-14 12:45:00,
2013-01-14 07:50:00,62.1,38.7,31.02,SSW,210,2.0,6.0,42,0.00,,,0.00,meteohub,2013-01-14 12:50:00,
2013-01-14 07:55:00,62.1,38.7,31.02,SSE,147,3.0,4.0,42,0.00,,,0.00,meteohub,2013-01-14 12:55:00,
2013-01-14 08:00:00,61.9,38.5,31.02,SW,227,3.0,4.0,42,0.00,,,0.00,meteohub,2013-01-14 13:00:00,
2013-01-14 08:05:00,61.9,38.5,31.02,South,173,0.0,6.0,42,0.00,,,0.00,meteohub,2013-01-14 13:05:00,
2013-01-14 08:10:00,61.9,38.5,31.02,South,190,0.0,6.0,42,0.00,,,0.00,meteohub,2013-01-14 13:10:00,
2013-01-14 08:15:00,62.1,38.7,31.02,SSW,205,3.0,5.0,42,0.00,,,0.00,meteohub,2013-01-14 13:15:00,
2013-01-14 08:21:00,62.1,38.7,31.02,SSW,204,3.0,5.0,42,0.00,,,0.00,meteohub,2013-01-14 13:21:00,
2013-01-14 08:26:00,62.2,38.8,31.02,SSW,201,3.0,5.0,42,0.00,,,0.00,meteohub,2013-01-14 13:26:00,
2013-01-14 08:31:00,62.2,38.8,31.02,South,177,4.0,5.0,42,0.00,,,0.00,meteohub,2013-01-14 13:31:00,
2013-01-14 08:36:00,62.1,38.7,31.02,West,265,3.0,4.0,42,0.00,,,0.00,meteohub,2013-01-14 13:36:00,
2013-01-14 08:41:00,62.2,38.3,31.02,South,169,4.0,4.0,41,0.00,,,0.00,meteohub,2013-01-14 13:41:00,
2013-01-14 08:46:00,62.2,38.3,31.02,WSW,241,4.0,5.0,41,0.00,,,0.00,meteohub,2013-01-14 13:46:00,
2013-01-14 08:52:00,62.2,38.3,31.02,SSW,212,3.0,5.0,41,0.00,,,0.00,meteohub,2013-01-14 13:52:00,
2013-01-14 08:57:00,62.4,38.5,31.02,SW,229,4.0,4.0,41,0.00,,,0.00,meteohub,2013-01-14 13:57:00,
2013-01-14 09:02:00,62.6,37.9,31.02,South,171,5.0,5.0,40,0.00,,,0.00,meteohub,2013-01-14 14:02:00,
2013-01-14 09:07:00,62.6,37.9,31.02,SSW,197,4.0,5.0,40,0.00,,,0.00,meteohub,2013-01-14 14:07:00,
2013-01-14 09:12:00,62.8,37.4,31.02,SW,235,0.0,5.0,39,0.00,,,0.00,meteohub,2013-01-14 14:12:00,
2013-01-14 09:17:00,63.0,37.6,31.02,South,191,4.0,5.0,39,0.00,,,0.00,meteohub,2013-01-14 14:17:00,
2013-01-14 09:22:00,63.3,37.9,31.02,SSE,149,0.0,5.0,39,0.00,,,0.00,meteohub,2013-01-14 14:22:00,
2013-01-14 09:27:00,63.5,37.4,31.02,WSW,253,5.0,5.0,38,0.00,,,0.00,meteohub,2013-01-14 14:27:00,
2013-01-14 09:32:00,63.5,37.4,31.02,SSW,211,0.0,6.0,38,0.00,,,0.00,meteohub,2013-01-14 14:32:00,
2013-01-14 09:37:00,63.7,37.6,31.02,NW,312,0.0,6.0,38,0.00,,,0.00,meteohub,2013-01-14 14:37:00,
2013-01-14 09:42:00,63.7,37.6,31.02,SSW,205,4.0,6.0,38,0.00,,,0.00,meteohub,2013-01-14 14:42:00,
2013-01-14 09:47:00,63.7,37.6,31.02,SW,217,3.0,6.0,38,0.00,,,0.00,meteohub,2013-01-14 14:47:00,
2013-01-14 09:52:00,63.7,38.3,31.02,SW,222,0.0,6.0,39,0.00,,,0.00,meteohub,2013-01-14 14:52:00,
2013-01-14 09:57:00,63.9,38.5,31.02,SW,219,3.0,6.0,39,0.00,,,0.00,meteohub,2013-01-14 14:57:00,
2013-01-14 10:02:00,64.0,38.7,31.02,South,172,4.0,6.0,39,0.00,,,0.00,meteohub,2013-01-14 15:02:00,
2013-01-14 10:07:00,64.2,38.7,31.02,WSW,244,0.0,6.0,39,0.00,,,0.00,meteohub,2013-01-14 15:07:00,
2013-01-14 10:12:00,64.4,38.8,31.02,WSW,256,0.0,6.0,39,0.00,,,0.00,meteohub,2013-01-14 15:12:00,
2013-01-14 10:18:00,64.6,39.0,31.02,SSW,198,0.0,5.0,39,0.00,,,0.00,meteohub,2013-01-14 15:18:00,
2013-01-14 10:23:00,64.8,38.5,31.02,SSW,211,0.0,6.0,38,0.00,,,0.00,meteohub,2013-01-14 15:23:00,
2013-01-14 10:28:00,64.9,38.7,31.02,SW,227,3.0,6.0,38,0.00,,,0.00,meteohub,2013-01-14 15:28:00,
2013-01-14 10:33:00,65.1,38.8,31.02,South,177,3.0,6.0,38,0.00,,,0.00,meteohub,2013-01-14 15:33:00,
2013-01-14 10:38:00,65.1,38.8,31.02,SSW,200,3.0,6.0,38,0.00,,,0.00,meteohub,2013-01-14 15:38:00,
2013-01-14 10:43:00,65.3,39.0,31.02,SSW,211,3.0,6.0,38,0.00,,,0.00,meteohub,2013-01-14 15:43:00,
2013-01-14 10:48:00,65.5,39.2,31.02,South,177,3.0,6.0,38,0.00,,,0.00,meteohub,2013-01-14 15:48:00,
2013-01-14 10:53:00,66.0,39.0,31.02,SW,222,4.0,6.0,37,0.00,,,0.00,meteohub,2013-01-14 15:53:00,
2013-01-14 10:58:00,66.4,39.4,31.02,WSW,239,0.0,5.0,37,0.00,,,0.00,meteohub,2013-01-14 15:58:00,
2013-01-14 11:04:00,66.9,39.0,31.02,West,265,4.0,4.0,36,0.00,,,0.00,meteohub,2013-01-14 16:04:00,
2013-01-14 11:09:00,67.1,38.5,31.02,SW,228,4.0,6.0,35,0.00,,,0.00,meteohub,2013-01-14 16:09:00,
2013-01-14 11:14:00,67.1,38.5,31.02,SSW,212,5.0,6.0,35,0.00,,,0.00,meteohub,2013-01-14 16:14:00,
2013-01-14 11:19:00,67.1,38.5,31.02,SSW,208,0.0,6.0,35,0.00,,,0.00,meteohub,2013-01-14 16:19:00,
2013-01-14 11:24:00,67.1,38.5,31.02,SW,223,3.0,8.0,35,0.00,,,0.00,meteohub,2013-01-14 16:24:00,
2013-01-14 11:29:00,67.1,39.2,31.02,SSW,200,3.0,8.0,36,0.00,,,0.00,meteohub,2013-01-14 16:29:00,
2013-01-14 11:34:00,67.1,38.5,31.02,SW,231,3.0,8.0,35,0.00,,,0.00,meteohub,2013-01-14 16:34:00,
2013-01-14 11:39:00,67.1,39.2,31.02,South,188,3.0,6.0,36,0.00,,,0.00,meteohub,2013-01-14 16:39:00,
2013-01-14 11:44:00,67.1,39.2,31.02,SSW,213,6.0,6.0,36,0.00,,,0.00,meteohub,2013-01-14 16:44:00,
2013-01-14 11:49:00,67.1,39.2,31.02,WSW,253,0.0,8.0,36,0.00,,,0.00,meteohub,2013-01-14 16:49:00,
2013-01-14 11:54:00,67.1,39.2,31.02,NW,326,3.0,8.0,36,0.00,,,0.00,meteohub,2013-01-14 16:54:00,
2013-01-14 11:59:00,66.9,39.0,31.02,SSE,158,2.0,8.0,36,0.00,,,0.00,meteohub,2013-01-14 16:59:00,
2013-01-14 12:05:00,67.1,39.9,31.02,WSW,237,0.0,6.0,37,0.00,,,0.00,meteohub,2013-01-14 17:05:00,
2013-01-14 12:10:00,66.9,39.7,31.02,South,189,3.0,6.0,37,0.00,,,0.00,meteohub,2013-01-14 17:10:00,
2013-01-14 12:15:00,66.9,39.7,31.02,South,178,5.0,6.0,37,0.00,,,0.00,meteohub,2013-01-14 17:15:00,
2013-01-14 12:20:00,66.9,39.7,31.02,SW,222,3.0,6.0,37,0.00,,,0.00,meteohub,2013-01-14 17:20:00,
2013-01-14 12:25:00,66.9,39.7,31.02,SSW,200,5.0,6.0,37,0.00,,,0.00,meteohub,2013-01-14 17:25:00,
2013-01-14 12:30:00,67.1,39.9,31.02,South,176,3.0,6.0,37,0.00,,,0.00,meteohub,2013-01-14 17:30:00,
2013-01-14 12:35:00,67.1,40.6,31.02,SSW,200,3.0,6.0,38,0.00,,,0.00,meteohub,2013-01-14 17:35:00,
2013-01-14 12:41:00,67.1,39.9,31.02,SW,224,3.0,6.0,37,0.00,,,0.00,meteohub,2013-01-14 17:41:00,
2013-01-14 12:46:00,67.1,40.6,31.02,SW,223,4.0,6.0,38,0.00,,,0.00,meteohub,2013-01-14 17:46:00,
2013-01-14 12:51:00,67.1,40.6,31.02,WSW,257,4.0,6.0,38,0.00,,,0.00,meteohub,2013-01-14 17:51:00,
2013-01-14 12:56:00,67.1,40.6,31.02,SW,228,2.0,6.0,38,0.00,,,0.00,meteohub,2013-01-14 17:56:00,
2013-01-14 13:01:00,67.1,40.6,31.02,South,182,3.0,5.0,38,0.00,,,0.00,meteohub,2013-01-14 18:01:00,
2013-01-14 13:06:00,67.1,41.4,31.02,WSW,244,2.0,5.0,39,0.00,,,0.00,meteohub,2013-01-14 18:06:00,
2013-01-14 13:11:00,67.3,40.8,31.02,WSW,240,0.0,4.0,38,0.00,,,0.00,meteohub,2013-01-14 18:11:00,
2013-01-14 13:16:00,67.3,40.8,31.02,WSW,258,0.0,5.0,38,0.00,,,0.00,meteohub,2013-01-14 18:16:00,
2013-01-14 13:21:00,67.5,41.0,31.02,WSW,242,0.0,5.0,38,0.00,,,0.00,meteohub,2013-01-14 18:21:00,
2013-01-14 13:27:00,67.6,41.2,31.02,SW,226,0.0,5.0,38,0.00,,,0.00,meteohub,2013-01-14 18:27:00,
2013-01-14 13:32:00,67.6,41.2,31.02,WSW,248,3.0,3.0,38,0.00,,,0.00,meteohub,2013-01-14 18:32:00,
2013-01-14 13:37:00,67.6,41.2,31.02,SW,219,3.0,5.0,38,0.00,,,0.00,meteohub,2013-01-14 18:37:00,
2013-01-14 13:42:00,67.6,41.2,31.02,SW,222,0.0,5.0,38,0.00,,,0.00,meteohub,2013-01-14 18:42:00,
2013-01-14 13:47:00,67.8,41.4,31.02,West,262,0.0,5.0,38,0.00,,,0.00,meteohub,2013-01-14 18:47:00,
2013-01-14 13:52:00,67.8,41.4,31.02,WSW,241,0.0,4.0,38,0.00,,,0.00,meteohub,2013-01-14 18:52:00,
2013-01-14 13:57:00,68.0,41.4,31.02,WSW,241,0.0,4.0,38,0.00,,,0.00,meteohub,2013-01-14 18:57:00,
2013-01-14 14:02:00,68.0,41.4,31.02,SW,221,0.0,4.0,38,0.00,,,0.00,meteohub,2013-01-14 19:02:00,
2013-01-14 14:07:00,68.0,40.8,31.02,West,270,0.0,4.0,37,0.00,,,0.00,meteohub,2013-01-14 19:07:00,
2013-01-14 14:12:00,68.0,40.8,31.02,WSW,238,2.0,3.0,37,0.00,,,0.00,meteohub,2013-01-14 19:12:00,
2013-01-14 14:17:00,68.2,41.5,31.02,WSW,242,0.0,3.0,38,0.00,,,0.00,meteohub,2013-01-14 19:17:00,
2013-01-14 14:22:00,68.2,41.5,31.02,SSW,195,0.0,3.0,38,0.00,,,0.00,meteohub,2013-01-14 19:22:00,
2013-01-14 14:27:00,68.2,41.5,31.02,SSW,200,0.0,3.0,38,0.00,,,0.00,meteohub,2013-01-14 19:27:00,
2013-01-14 14:32:00,68.2,41.5,31.02,West,267,0.0,0.0,38,0.00,,,0.00,meteohub,2013-01-14 19:32:00,
2013-01-14 14:37:00,68.2,41.5,31.02,WSW,242,0.0,2.0,38,0.00,,,0.00,meteohub,2013-01-14 19:37:00,
2013-01-14 14:42:00,68.2,41.5,31.02,SW,233,2.0,3.0,38,0.00,,,0.00,meteohub,2013-01-14 19:42:00,
2013-01-14 14:47:00,68.0,41.4,31.02,SW,219,2.0,3.0,38,0.00,,,0.00,meteohub,2013-01-14 19:47:00,
2013-01-14 14:52:00,68.0,41.4,31.02,SW,224,0.0,3.0,38,0.00,,,0.00,meteohub,2013-01-14 19:52:00,
2013-01-14 14:57:00,68.0,41.4,31.02,SW,224,0.0,3.0,38,0.00,,,0.00,meteohub,2013-01-14 19:57:00,
2013-01-14 15:02:00,68.0,42.1,31.02,North,5,0.0,3.0,39,0.00,,,0.00,meteohub,2013-01-14 20:02:00,
2013-01-14 15:07:00,68.0,42.1,31.02,NNW,346,0.0,3.0,39,0.00,,,0.00,meteohub,2013-01-14 20:07:00,
2013-01-14 15:12:00,68.0,42.1,31.02,SW,233,0.0,0.0,39,0.00,,,0.00,meteohub,2013-01-14 20:12:00,
2013-01-14 15:17:00,68.0,42.1,31.02,SW,233,0.0,0.0,39,0.00,,,0.00,meteohub,2013-01-14 20:17:00,
2013-01-14 15:22:00,68.0,42.1,31.02,SW,233,0.0,0.0,39,0.00,,,0.00,meteohub,2013-01-14 20:22:00,
2013-01-14 15:27:00,68.2,42.3,31.02,SW,233,0.0,0.0,39,0.00,,,0.00,meteohub,2013-01-14 20:27:00,
2013-01-14 15:32:00,68.2,42.3,31.02,SW,215,0.0,0.0,39,0.00,,,0.00,meteohub,2013-01-14 20:32:00,
2013-01-14 15:37:00,68.4,42.4,31.02,SW,215,0.0,0.0,39,0.00,,,0.00,meteohub,2013-01-14 20:37:00,
2013-01-14 15:42:00,68.4,42.4,31.02,SW,215,0.0,0.0,39,0.00,,,0.00,meteohub,2013-01-14 20:42:00,
2013-01-14 15:48:00,68.4,42.4,31.02,SSW,193,0.0,0.0,39,0.00,,,0.00,meteohub,2013-01-14 20:48:00,
2013-01-14 15:53:00,68.4,42.4,31.02,SSW,211,0.0,0.0,39,0.00,,,0.00,meteohub,2013-01-14 20:53:00,
2013-01-14 15:58:00,68.4,42.4,31.02,SSW,211,0.0,0.0,39,0.00,,,0.00,meteohub,2013-01-14 20:58:00,
2013-01-14 16:03:00,68.2,42.3,31.02,SSW,207,0.0,0.0,39,0.00,,,0.00,meteohub,2013-01-14 21:03:00,
2013-01-14 16:08:00,68.2,42.3,31.02,SSW,207,0.0,0.0,39,0.00,,,0.00,meteohub,2013-01-14 21:08:00,
2013-01-14 16:13:00,68.0,42.1,31.02,SSW,207,0.0,0.0,39,0.00,,,0.00,meteohub,2013-01-14 21:13:00,
2013-01-14 16:18:00,67.8,42.6,31.02,SSW,207,0.0,0.0,40,0.00,,,0.00,meteohub,2013-01-14 21:18:00,
2013-01-14 16:23:00,67.8,42.6,31.02,SSW,207,0.0,0.0,40,0.00,,,0.00,meteohub,2013-01-14 21:23:00,
2013-01-14 16:28:00,67.6,42.4,31.02,SSW,207,0.0,0.0,40,0.00,,,0.00,meteohub,2013-01-14 21:28:00,
2013-01-14 16:34:00,67.6,42.4,31.02,SSW,207,0.0,0.0,40,0.00,,,0.00,meteohub,2013-01-14 21:34:00,
2013-01-14 16:39:00,67.5,43.0,31.02,SSW,207,0.0,0.0,41,0.00,,,0.00,meteohub,2013-01-14 21:39:00,
2013-01-14 16:44:00,67.3,42.8,31.02,SSW,207,0.0,0.0,41,0.00,,,0.00,meteohub,2013-01-14 21:44:00,
2013-01-14 16:49:00,67.1,42.6,31.02,SSW,207,0.0,0.0,41,0.00,,,0.00,meteohub,2013-01-14 21:49:00,
2013-01-14 16:54:00,66.9,43.2,31.02,SSW,207,0.0,0.0,42,0.00,,,0.00,meteohub,2013-01-14 21:54:00,
2013-01-14 16:59:00,66.9,43.2,31.02,SSW,207,0.0,0.0,42,0.00,,,0.00,meteohub,2013-01-14 21:59:00,
2013-01-14 17:04:00,66.7,43.5,31.02,SSW,207,0.0,0.0,43,0.00,,,0.00,meteohub,2013-01-14 22:04:00,
2013-01-14 17:09:00,66.7,43.5,31.02,SSW,207,0.0,0.0,43,0.00,,,0.00,meteohub,2013-01-14 22:09:00,
2013-01-14 17:14:00,66.6,43.3,31.02,SSW,207,0.0,0.0,43,0.00,,,0.00,meteohub,2013-01-14 22:14:00,
2013-01-14 17:19:00,66.6,43.3,31.02,SSW,207,0.0,0.0,43,0.00,,,0.00,meteohub,2013-01-14 22:19:00,
2013-01-14 17:24:00,66.4,43.2,31.02,SSW,207,0.0,0.0,43,0.00,,,0.00,meteohub,2013-01-14 22:24:00,
2013-01-14 17:30:00,66.2,43.0,31.02,SSW,207,0.0,0.0,43,0.00,,,0.00,meteohub,2013-01-14 22:30:00,
2013-01-14 17:35:00,66.0,43.5,31.02,SSW,207,0.0,0.0,44,0.00,,,0.00,meteohub,2013-01-14 22:35:00,
2013-01-14 17:40:00,65.8,43.3,31.02,SSW,207,0.0,0.0,44,0.00,,,0.00,meteohub,2013-01-14 22:40:00,
2013-01-14 17:45:00,65.8,43.3,31.02,SSW,207,0.0,0.0,44,0.00,,,0.00,meteohub,2013-01-14 22:45:00,
2013-01-14 17:50:00,65.7,43.7,31.02,SSW,207,0.0,0.0,45,0.00,,,0.00,meteohub,2013-01-14 22:50:00,
2013-01-14 17:55:00,65.5,43.5,31.02,SSW,207,0.0,0.0,45,0.00,,,0.00,meteohub,2013-01-14 22:55:00,
2013-01-14 18:00:00,65.5,43.5,31.02,SSW,207,0.0,0.0,45,0.00,,,0.00,meteohub,2013-01-14 23:00:00,
2013-01-14 18:05:00,65.3,43.3,31.02,SSW,207,0.0,0.0,45,0.00,,,0.00,meteohub,2013-01-14 23:05:00,
2013-01-14 18:10:00,65.1,43.9,31.02,SSW,207,0.0,0.0,46,0.00,,,0.00,meteohub,2013-01-14 23:10:00,
2013-01-14 18:16:00,64.9,43.7,31.02,SSW,207,0.0,0.0,46,0.00,,,0.00,meteohub,2013-01-14 23:16:00,
2013-01-14 18:21:00,64.8,44.1,31.02,SSW,207,0.0,0.0,47,0.00,,,0.00,meteohub,2013-01-14 23:21:00,
2013-01-14 18:26:00,64.8,44.1,31.02,SSW,207,0.0,0.0,47,0.00,,,0.00,meteohub,2013-01-14 23:26:00,
2013-01-14 18:31:00,64.6,44.4,31.02,SSW,207,0.0,0.0,48,0.00,,,0.00,meteohub,2013-01-14 23:31:00,
2013-01-14 18:36:00,64.6,45.0,31.02,SSW,207,0.0,0.0,49,0.00,,,0.00,meteohub,2013-01-14 23:36:00,
2013-01-14 18:41:00,64.4,44.8,31.02,SSW,207,0.0,0.0,49,0.00,,,0.00,meteohub,2013-01-14 23:41:00,
2013-01-14 18:46:00,64.4,45.3,31.02,SSW,207,0.0,0.0,50,0.00,,,0.00,meteohub,2013-01-14 23:46:00,
2013-01-14 18:51:00,64.2,45.7,31.02,SSW,207,0.0,0.0,51,0.00,,,0.00,meteohub,2013-01-14 23:51:00,
2013-01-14 18:56:00,64.2,46.2,31.02,SSW,207,0.0,0.0,52,0.00,,,0.00,meteohub,2013-01-14 23:56:00,
2013-01-14 19:02:00,64.2,46.2,31.02,SSW,207,0.0,0.0,52,0.00,,,0.00,meteohub,2013-01-15 00:02:00,
2013-01-14 19:07:00,64.0,46.6,31.02,SSW,207,0.0,0.0,53,0.00,,,0.00,meteohub,2013-01-15 00:07:00,
2013-01-14 19:12:00,64.0,46.6,31.02,SSW,207,0.0,0.0,53,0.00,,,0.00,meteohub,2013-01-15 00:12:00,
2013-01-14 19:17:00,64.0,47.1,31.02,SSW,207,0.0,0.0,54,0.00,,,0.00,meteohub,2013-01-15 00:17:00,
2013-01-14 19:22:00,64.0,47.5,31.02,SSW,207,0.0,0.0,55,0.00,,,0.00,meteohub,2013-01-15 00:22:00,
2013-01-14 19:27:00,64.0,47.5,31.02,SSW,207,0.0,0.0,55,0.00,,,0.00,meteohub,2013-01-15 00:27:00,
2013-01-14 19:32:00,63.9,47.8,31.02,SSW,207,0.0,0.0,56,0.00,,,0.00,meteohub,2013-01-15 00:32:00,
2013-01-14 19:37:00,63.9,47.8,31.02,SSW,207,0.0,0.0,56,0.00,,,0.00,meteohub,2013-01-15 00:37:00,
2013-01-14 19:42:00,63.9,48.4,31.02,SSW,207,0.0,0.0,57,0.00,,,0.00,meteohub,2013-01-15 00:42:00,
2013-01-14 19:47:00,63.9,48.4,31.02,SSW,207,0.0,0.0,57,0.00,,,0.00,meteohub,2013-01-15 00:47:00,
2013-01-14 19:52:00,63.7,48.6,31.02,SSW,207,0.0,0.0,58,0.00,,,0.00,meteohub,2013-01-15 00:52:00,
2013-01-14 19:57:00,63.7,48.6,31.02,SSW,207,0.0,0.0,58,0.00,,,0.00,meteohub,2013-01-15 00:57:00,
2013-01-14 20:02:00,63.7,48.6,31.02,SSW,207,0.0,0.0,58,0.00,,,0.00,meteohub,2013-01-15 01:02:00,
2013-01-14 20:08:00,63.5,48.9,31.02,SSW,207,0.0,0.0,59,0.00,,,0.00,meteohub,2013-01-15 01:08:00,
2013-01-14 20:13:00,63.5,48.9,31.02,SSW,207,0.0,0.0,59,0.00,,,0.00,meteohub,2013-01-15 01:13:00,
2013-01-14 20:18:00,63.5,49.3,31.02,SSW,207,0.0,0.0,60,0.00,,,0.00,meteohub,2013-01-15 01:18:00,
2013-01-14 20:23:00,63.5,49.3,31.02,SSW,207,0.0,0.0,60,0.00,,,0.00,meteohub,2013-01-15 01:23:00,
2013-01-14 20:28:00,63.5,49.8,31.02,SSE,168,0.0,0.0,61,0.00,,,0.00,meteohub,2013-01-15 01:28:00,
2013-01-14 20:33:00,63.5,49.8,31.02,SSE,168,0.0,0.0,61,0.00,,,0.00,meteohub,2013-01-15 01:33:00,
2013-01-14 20:38:00,63.3,50.0,31.02,SSE,168,0.0,0.0,62,0.00,,,0.00,meteohub,2013-01-15 01:38:00,
2013-01-14 20:43:00,63.3,50.0,31.02,SSE,168,0.0,0.0,62,0.00,,,0.00,meteohub,2013-01-15 01:43:00,
2013-01-14 20:49:00,63.3,50.5,31.02,SSE,168,0.0,0.0,63,0.00,,,0.00,meteohub,2013-01-15 01:49:00,
2013-01-14 20:54:00,63.3,50.5,31.02,SSE,168,0.0,0.0,63,0.00,,,0.00,meteohub,2013-01-15 01:54:00,
2013-01-14 20:59:00,63.1,50.7,31.02,SSE,168,0.0,0.0,64,0.00,,,0.00,meteohub,2013-01-15 01:59:00,
2013-01-14 21:04:00,63.1,50.7,31.02,SSE,168,0.0,0.0,64,0.00,,,0.00,meteohub,2013-01-15 02:04:00,
2013-01-14 21:09:00,63.1,51.3,31.02,SSE,168,0.0,0.0,65,0.00,,,0.00,meteohub,2013-01-15 02:09:00,
2013-01-14 21:14:00,63.1,51.3,31.02,SSE,168,0.0,0.0,65,0.00,,,0.00,meteohub,2013-01-15 02:14:00,
2013-01-14 21:19:00,63.1,51.6,31.02,SSE,168,0.0,0.0,66,0.00,,,0.00,meteohub,2013-01-15 02:19:00,
2013-01-14 21:24:00,63.0,51.4,31.02,SSE,168,0.0,0.0,66,0.00,,,0.00,meteohub,2013-01-15 02:24:00,
2013-01-14 21:29:00,63.0,51.8,31.02,SSE,168,0.0,0.0,67,0.00,,,0.00,meteohub,2013-01-15 02:29:00,
2013-01-14 21:34:00,63.0,52.2,31.02,SSE,168,0.0,0.0,68,0.00,,,0.00,meteohub,2013-01-15 02:34:00,
2013-01-14 21:40:00,63.1,53.2,31.02,SSW,200,0.0,0.0,70,0.00,,,0.00,meteohub,2013-01-15 02:40:00,
2013-01-14 21:45:00,63.3,53.4,31.02,SSW,200,0.0,0.0,70,0.00,,,0.00,meteohub,2013-01-15 02:45:00,
2013-01-14 21:50:00,63.5,54.0,31.02,SSW,200,0.0,0.0,71,0.00,,,0.00,meteohub,2013-01-15 02:50:00,
2013-01-14 21:55:00,63.5,54.0,31.02,SSW,200,0.0,0.0,71,0.00,,,0.00,meteohub,2013-01-15 02:55:00,
2013-01-14 22:00:00,63.5,54.0,31.02,ENE,63,0.0,0.0,71,0.00,,,0.00,meteohub,2013-01-15 03:00:00,
2013-01-14 22:05:00,63.5,54.3,31.02,ESE,115,0.0,0.0,72,0.00,,,0.00,meteohub,2013-01-15 03:05:00,
2013-01-14 22:10:00,63.5,54.0,31.02,ESE,115,0.0,0.0,71,0.00,,,0.00,meteohub,2013-01-15 03:10:00,
2013-01-14 22:15:00,63.3,53.8,31.02,SSW,202,0.0,0.0,71,0.00,,,0.00,meteohub,2013-01-15 03:15:00,
2013-01-14 22:20:00,63.1,53.6,31.02,SSW,202,0.0,0.0,71,0.00,,,0.00,meteohub,2013-01-15 03:20:00,
2013-01-14 22:25:00,63.0,53.4,31.02,SSW,205,0.0,0.0,71,0.00,,,0.00,meteohub,2013-01-15 03:25:00,
2013-01-14 22:31:00,63.0,53.4,31.02,SSW,205,0.0,0.0,71,0.00,,,0.00,meteohub,2013-01-15 03:31:00,
2013-01-14 22:36:00,62.8,53.2,31.02,SW,217,0.0,0.0,71,0.00,,,0.00,meteohub,2013-01-15 03:36:00,
2013-01-14 22:41:00,62.8,53.2,31.02,SW,218,0.0,0.0,71,0.00,,,0.00,meteohub,2013-01-15 03:41:00,
2013-01-14 22:46:00,62.6,53.1,31.02,SW,218,0.0,0.0,71,0.00,,,0.00,meteohub,2013-01-15 03:46:00,
2013-01-14 22:51:00,62.4,52.9,31.02,SSW,200,0.0,0.0,71,0.00,,,0.00,meteohub,2013-01-15 03:51:00,
2013-01-14 22:56:00,62.2,52.7,31.02,SSW,200,0.0,0.0,71,0.00,,,0.00,meteohub,2013-01-15 03:56:00,
2013-01-14 23:01:00,62.1,52.5,31.02,SSW,200,0.0,0.0,71,0.00,,,0.00,meteohub,2013-01-15 04:01:00,
2013-01-14 23:06:00,61.9,52.3,31.02,SSW,200,0.0,0.0,71,0.00,,,0.00,meteohub,2013-01-15 04:06:00,
2013-01-14 23:11:00,61.9,52.3,31.02,SSW,200,0.0,0.0,71,0.00,,,0.00,meteohub,2013-01-15 04:11:00,
2013-01-14 23:16:00,61.7,52.2,31.02,SSW,200,0.0,0.0,71,0.00,,,0.00,meteohub,2013-01-15 04:16:00,
2013-01-14 23:21:00,61.5,52.0,31.02,SSW,200,0.0,0.0,71,0.00,,,0.00,meteohub,2013-01-15 04:21:00,
2013-01-14 23:26:00,61.3,52.2,31.02,SSW,200,0.0,0.0,72,0.00,,,0.00,meteohub,2013-01-15 04:26:00,
2013-01-14 23:31:00,61.5,52.3,31.02,SSW,200,0.0,0.0,72,0.00,,,0.00,meteohub,2013-01-15 04:31:00,
2013-01-14 23:37:00,61.5,52.7,31.02,North,357,0.0,0.0,73,0.00,,,0.00,meteohub,2013-01-15 04:37:00,
2013-01-14 23:42:00,61.9,53.4,31.02,NE,34,3.0,8.0,74,0.00,,,0.00,meteohub,2013-01-15 04:42:00,
2013-01-14 23:47:00,61.9,53.1,31.02,ENE,75,0.0,8.0,73,0.00,,,0.00,meteohub,2013-01-15 04:47:00,
2013-01-14 23:52:00,61.7,52.9,31.02,NE,34,4.0,8.0,73,0.00,,,0.00,meteohub,2013-01-15 04:52:00,
2013-01-14 23:57:00,61.2,52.0,31.02,NW,326,5.0,6.0,72,0.00,,,0.00,meteohub,2013-01-15 04:57:00,